Regional Weather Roundup
Issued by NWS

Home | Current Version | Previous Version | Text Only | Print | Product List | Glossary On
Versions: 1 2 3 4 5 6 7 8 9 10 11 12 13 14 15 16 17 18 19 20 21 22 23 24 25 26 27 28 29 30 31 32 33 34 35 36 37 38 39 40 41 42 43 44 45 46 47 48 49 50
000
ASUS43 KTOP 181708
RWRKS

WEATHER ROUNDUP FOR KANSAS
NATIONAL WEATHER SERVICE GOODLAND KS
1200 PM CDT THU SEP 18 2014

NOTE:  "FAIR" INDICATES FEW OR NO CLOUDS BELOW 12,000 FEET WITH NO
SIGNIFICANT WEATHER AND/OR OBSTRUCTIONS TO VISIBILITY.

KSZ001>006-013>018-027>032-041>047-181800-
NORTHWEST KANSAS

CITY           SKY/WX    TMP DP  RH WIND       PRES   REMARKS
GOODLAND       SUNNY     70  62  76 VRB5      30.01S
HAYS           CLOUDY    66  63  88 E8        29.97R
HILL CITY      CLOUDY    66  65  96 SE9       29.98S FOG
RUSSELL        CLOUDY    69  67  93 E12       29.95F FOG
$$

KSZ061>065-074>080-084>089-181800-
SOUTHWEST KANSAS

CITY           SKY/WX    TMP DP  RH WIND       PRES   REMARKS
DODGE CITY     SUNNY     88  54  31 S10       29.96S
ELKHART          N/A     82  57  42 S9          N/A
GARDEN CITY    SUNNY     81  58  45 CALM      29.97R
GREAT BEND     MOSUNNY   81  64  57 S25G33    29.95F
LIBERAL        SUNNY     84  61  45 SW14      30.00S
PRATT          SUNNY     77  59  53 S25G33    30.00S
$$

KSZ066>073-081>083-090>101-181800-
SOUTHEAST KANSAS

CITY           SKY/WX    TMP DP  RH WIND       PRES   REMARKS
CHANUTE        CLOUDY    65  63  93 NE8       29.98F
COFFEYVILLE    CLOUDY    72  64  76 N16       29.98R
HUTCHINSON     MOSUNNY   75  58  55 S22G31    29.99F
MEDICINE LODGE   N/A     76  59  55 S14G28    30.00F
NEWTON         CLOUDY    73  57  56 S16G22    30.03R
PARSONS        LGT RAIN  67  65  93 N6        30.00R
WICHITA INTL   MOSUNNY   79  58  48 SE21G30   30.00F
WICHITA JABRA  SUNNY     76  59  55 S18       30.00F
WINFIELD       MOSUNNY   78  59  51 SE16      30.00F
$$

KSZ007>012-019>026-033>040-048>060-102>105-181800-
NORTHEAST KANSAS

CITY           SKY/WX    TMP DP  RH WIND       PRES   REMARKS
CONCORDIA      CLOUDY    68  66  93 SE13      30.00S
EMPORIA        CLOUDY    66  64  93 N5        30.01R
LAWRENCE       CLOUDY    65  61  87 E7        30.03S FOG
MANHATTAN      CLOUDY    71  65  81 SE9       30.01S
MARYSVILLE     PTSUNNY   72  63  73 S8        30.02R
OLATHE IND     CLOUDY    65  62  90 E10       30.03F
OLATHE EXE     CLOUDY    63  62  97 E9        30.02F FOG
SALINA         CLOUDY    72  65  78 SE13      30.00R
TOPEKA BILLARD CLOUDY    68  64  87 E9        30.02F
TOPEKA FORBES  CLOUDY    67  63  87 E8        30.02S
$$



USA.gov is the U.S. government's official web portal to all federal, state and local government web resources and services.